sat.trackr.live / text

‹ back to catalog

UNKNOWN

NORAD 81819

UNKNOWN UNKNOWN UNKNOWN

§ Identity

Operator
Country
Launch date
Launch site
Launch vehicle
Mass (kg)
RCS (m²)

External: N2YO · Heavens-Above

§ Orbital elements

Epoch: 2026-09-17T05:53:45.294432Z

Period
115.38 min
Inclination
102.1807°
Eccentricity
0.0032991
Mean motion
12.48021875 rev/d
Perigee alt
1,446.9 km
Apogee alt
1,498.7 km
Semi-major
7,850.9 km
B*
3.6223e-3
RAAN
6.4402°
Arg perigee
310.5852°
Mean anomaly
49.2345°
Rev number
58,275

§ Raw data

UNKNOWN1 81819U          26260.24566313  .00000491  00000+0  36223-2 0  99942 81819 102.1807   6.4402 0032991 310.5852  49.2345 12.48021875582754

JSON: /api/v1/satellites/81819 · /tle

For live sub-satellite position, see the globe view (requires WebGL).

§ Visibility from observer

Set your observer location to see the next 7 days of passes ≥ 10°. The values pass through the URL so the page stays shareable.

No JS? Fill the form by hand. The geolocation button needs JavaScript.